Location: Trois-Rivi�res
(46.3500°N, 72.5500°W)
Time: 07:28:49
(UTC-04:00)

OTV 5 (USA 277) - Pass Details

Date: 15 October 2017
Orbit: 404 x 417 km, 43.0° (Epoch: 07 September)

Event Time Altitude Azimuth Distance (km) Brightness Sun altitude
Rises 20:19:47 0° 267° (W) 2,356 ? -24.2°
Reaches altitude 10° 20:21:57 10° 261° (W) 1,492 ? -24.6°
Enters shadow 20:23:45 26° 243° (WSW) 851 ? -24.9°
